Location: Seattle
(47.6064°N, 122.3308°W)
Time: 13:33:35
(UTC-08:00)

SR - Pass Details

Date: 29 November 2020
Orbit: 575 x 880 km, 66.7° (Epoch: 23 January)

Event Time Altitude Azimuth Distance (km) Brightness Sun altitude
Rises 18:07:26 0° 200° (SSW) 2,796 ? -17.4°
Reaches altitude 10° 18:09:37 10° 195° (SSW) 1,922 ? -17.7°
Maximum altitude 18:13:49 54° 118° (ESE) 752 ? -18.4°
Enters shadow 18:15:04 40° 67° (ENE) 930 ? -18.6°
